DW7301 Weather Reports


time (UTC)temp
C
wind
direction
speed
KPH
gust
KPH
rain 1hr
cm
rain 24hr
cm
rain mn
cm
humidity
%
barometer
mb
20260510013407 14 296 11.3 17.7 0.00 0.00 0.00 37 1020.1
20260510012841 14 263 11.3 17.7 0.00 0.00 0.00 36 1020.1
20260510012314 14 279 11.3 17.7 0.00 0.00 0.00 37 1020.1
20260510011811 14 299 11.3 17.7 0.00 0.00 0.00 36 1020.1
20260510011306 14 0 12.9 19.3 0.00 0.00 0.00 37 1020.1
20260510010802 13 272 11.3 19.3 0.00 0.00 0.00 37 1020.1
20260510010507 14 276 11.3 16.1 0.00 0.00 0.00 37 1020.1
20260510005725 13 0 9.7 19.3 0.00 0.00 0.00 37 1020.1
20260510005458 13 298 11.3 19.3 0.00 0.00 0.00 37 1019.9
20260510005334 13 291 16.1 20.9 0.00 0.00 0.00 36 1019.9
20260510004121 13 259 14.5 22.5 0.00 0.00 0.00 36 1019.9
20260510003826 14 272 9.7 22.5 0.00 0.00 0.00 35 1019.9
20260510003028 14 257 6.4 12.9 0.00 0.00 0.00 36 1019.8
20260510002524 14 260 8.0 16.1 0.00 0.00 0.00 39 1019.8
20260510002230 14 306 8.0 16.1 0.00 0.00 0.00 36 1019.8
20260510001432 13 252 9.7 16.1 0.00 0.00 0.00 37 1019.8
20260510000929 14 0 11.3 19.3 0.00 0.00 0.00 35 1019.8
20260510000403 14 285 12.9 22.5 0.00 0.00 0.00 35 1019.8
20260509235858 14 279 14.5 22.5 0.00 0.00 0.00 36 1019.8
20260509235607 15 261 11.3 19.3 0.00 0.00 0.00 34 1019.6
20260509235332 14 277 14.5 22.5 0.00 0.00 0.00 35 1019.7
20260509234819 15 256 11.3 19.3 0.00 0.00 0.00 32 1019.6
20260509233818 15 283 11.3 19.3 0.00 0.00 0.00 30 1019.6
20260509233253 15 273 11.3 20.9 0.00 0.00 0.00 31 1019.6
20260509232726 16 279 8.0 20.9 0.00 0.00 0.00 32 1019.6
20260509232223 15 259 9.7 17.7 0.00 0.00 0.00 31 1019.6
20260509231650 15 332 12.9 20.9 0.00 0.00 0.00 33 1019.6
20260509231417 15 264 12.9 24.1 0.00 0.00 0.00 31 1019.6
20260509230642 15 252 11.3 24.1 0.00 0.00 0.00 32 1019.5
20260509230116 15 296 9.7 19.3 0.00 0.00 0.00 36 1019.6
20260509225612 15 302 9.7 20.9 0.00 0.00 0.00 35 1019.6
20260509225342 15 317 9.7 20.9 0.00 0.00 0.00 34 1019.6
20260509224838 15 257 12.9 22.5 0.00 0.00 0.00 38 1019.6
20260509224040 15 0 11.3 22.5 0.00 0.00 0.00 35 1019.6
20260509223808 15 260 9.7 20.9 0.00 0.00 0.00 37 1019.6
20260509223242 15 278 9.7 20.9 0.00 0.00 0.00 36 1019.6
20260509222737 15 259 9.7 19.3 0.00 0.00 0.00 34 1019.6
20260509221940 15 279 9.7 19.3 0.00 0.00 0.00 34 1019.7
20260509221437 15 289 11.3 20.9 0.00 0.00 0.00 33 1019.6
20260509221118 14 267 12.9 24.1 0.00 0.00 0.00 34 1019.7
20260509220953 15 265 12.9 20.9 0.00 0.00 0.00 35 1019.7
20260509215819 14 269 14.5 24.1 0.00 0.00 0.00 34 1019.7
20260509215257 15 269 14.5 27.4 0.00 0.00 0.00 33 1019.7
20260509214758 15 281 14.5 27.4 0.00 0.00 0.00 32 1019.6
20260509214234 16 308 11.3 27.4 0.00 0.00 0.00 32 1019.5
20260509213711 15 286 8.0 24.1 0.00 0.00 0.00 34 1019.5
20260509213212 16 313 12.9 25.7 0.00 0.00 0.00 34 1019.6
20260509212650 15 283 11.3 25.7 0.00 0.00 0.00 33 1019.7
20260509212150 15 236 11.3 20.9 0.00 0.00 0.00 34 1019.7
20260509211650 15 48 12.9 32.2 0.00 0.00 0.00 32 1019.7
20260509211148 15 263 11.3 32.2 0.00 0.00 0.00 34 1019.7
20260509210624 15 246 12.9 27.4 0.00 0.00 0.00 33 1019.7
20260509210059 15 271 16.1 29.0 0.00 0.00 0.00 34 1019.8
20260509205541 15 223 17.7 30.6 0.00 0.00 0.00 34 1019.8
20260509205042 15 244 14.5 30.6 0.00 0.00 0.00 33 1019.8
20260509204524 15 294 14.5 30.6 0.00 0.00 0.00 35 1019.8
20260509204004 15 269 16.1 30.6 0.00 0.00 0.00 33 1019.8
20260509203457 14 303 16.1 27.4 0.00 0.00 0.00 35 1019.8
20260509203451 15 249 16.1 24.1 0.00 0.00 0.00 36 1019.8
20260509202702 15 263 16.1 27.4 0.00 0.00 0.00 35 1019.8
20260509201904 15 304 16.1 27.4 0.00 0.00 0.00 34 1019.8
20260509201347 15 282 14.5 27.4 0.00 0.00 0.00 36 1019.8
20260509200821 14 281 12.9 20.9 0.00 0.00 0.00 36 1019.8
20260509200316 13 270 12.9 25.7 0.00 0.00 0.00 39 1019.8
20260509200046 13 316 12.9 25.7 0.00 0.00 0.00 38 1019.8
20260509195317 13 263 14.5 27.4 0.00 0.00 0.00 38 1019.9
20260509194815 13 327 14.5 27.4 0.00 0.00 0.00 38 1019.8
20260509194315 12 295 16.1 24.1 0.00 0.00 0.00 39 1019.9
20260509193816 12 277 17.7 24.1 0.00 0.00 0.00 38 1019.8
20260509193302 12 292 17.7 25.7 0.00 0.00 0.00 37 1019.8
20260509192802 12 261 16.1 25.7 0.00 0.00 0.00 37 1019.8
20260509192534 12 286 17.7 32.2 0.00 0.00 0.00 39 1019.8
20260509191802 13 273 16.1 32.2 0.00 0.00 0.00 37 1019.8
20260509191303 13 244 17.7 29.0 0.00 0.00 0.00 38 1019.7
20260509191034 13 247 19.3 29.0 0.00 0.00 0.00 39 1019.7
20260509190238 13 265 19.3 33.8 0.00 0.00 0.00 39 1019.6
20260509185715 14 267 16.1 33.8 0.00 0.00 0.00 34 1019.6
20260509185149 14 298 14.5 27.4 0.00 0.00 0.00 38 1019.6
20260509184645 13 0 14.5 27.4 0.00 0.00 0.00 37 1019.5
20260509184119 13 267 19.3 30.6 0.00 0.00 0.00 36 1019.5
20260509183554 14 268 19.3 33.8 0.00 0.00 0.00 35 1019.6
20260509183028 13 0 17.7 33.8 0.00 0.00 0.00 37 1019.6
20260509182733 13 249 19.3 30.6 0.00 0.00 0.00 39 1019.6
20260509181935 13 293 17.7 30.6 0.00 0.00 0.00 38 1019.5
20260509181411 12 245 20.9 38.6 0.00 0.00 0.00 37 1019.6
20260509180845 13 252 19.3 38.6 0.00 0.00 0.00 38 1019.6
20260509180341 12 252 19.3 33.8 0.00 0.00 0.00 39 1019.7
20260509175837 12 281 19.3 33.8 0.00 0.00 0.00 40 1019.7
20260509175543 13 290 19.3 37.0 0.00 0.00 0.00 37 1019.7
20260509174807 12 279 19.3 37.0 0.00 0.00 0.00 37 1019.7
20260509174306 12 241 19.3 29.0 0.00 0.00 0.00 40 1019.6
20260509173802 12 257 17.7 29.0 0.00 0.00 0.00 39 1019.7
20260509173235 12 0 17.7 29.0 0.00 0.00 0.00 39 1019.6
20260509172732 12 242 19.3 32.2 0.00 0.00 0.00 39 1019.6
20260509172205 12 252 19.3 32.2 0.00 0.00 0.00 39 1019.6
20260509171639 12 292 17.7 32.2 0.00 0.00 0.00 38 1019.6
20260509171135 12 305 17.7 32.2 0.00 0.00 0.00 38 1019.6
20260509170633 12 273 19.3 32.2 0.00 0.00 0.00 39 1019.6
20260509170129 12 310 20.9 37.0 0.00 0.00 0.00 39 1019.6
20260509165607 12 278 17.7 33.8 0.00 0.00 0.00 38 1019.7
20260509165603 12 247 17.7 33.8 0.00 0.00 0.00 39 1019.6
20260509164534 12 237 19.3 32.2 0.00 0.00 0.00 39 1019.6
20260509164029 11 227 20.9 32.2 0.00 0.00 0.00 40 1019.6
20260509163501 11 290 20.9 37.0 0.00 0.00 0.00 39 1019.6
20260509162959 11 245 20.9 37.0 0.00 0.00 0.00 39 1019.6
20260509162455 11 248 22.5 37.0 0.00 0.00 0.00 40 1019.7
20260509161933 11 281 20.9 37.0 0.00 0.00 0.00 38 1019.6
20260509161929 11 0 22.5 37.0 0.00 0.00 0.00 39 1019.6
20260509160859 11 256 19.3 37.0 0.00 0.00 0.00 39 1019.6
20260509160334 11 248 20.9 32.2 0.00 0.00 0.00 41 1019.5
20260509155808 11 257 19.3 32.2 0.00 0.00 0.00 41 1019.6
20260509155242 11 0 19.3 30.6 0.00 0.00 0.00 41 1019.5
20260509154716 11 282 17.7 29.0 0.00 0.00 0.00 40 1019.5
20260509154421 11 0 17.7 29.0 0.00 0.00 0.00 41 1019.3
20260509153623 11 262 19.3 30.6 0.00 0.00 0.00 42 1019.3
20260509153057 11 264 17.7 30.6 0.00 0.00 0.00 42 1019.3
20260509152825 11 269 17.7 32.2 0.00 0.00 0.00 42 1019.3
20260509152025 11 270 19.3 33.8 0.00 0.00 0.00 44 1019.3
20260509151523 10 285 19.3 33.8 0.00 0.00 0.00 42 1019.3
20260509151019 10 236 17.7 33.8 0.00 0.00 0.00 42 1019.3
20260509150451 10 0 16.1 33.8 0.00 0.00 0.00 43 1019.3
20260509145926 10 252 14.5 27.4 0.00 0.00 0.00 45 1019.3
20260509145359 10 240 17.7 29.0 0.00 0.00 0.00 45 1019.3
20260509144856 10 264 20.9 33.8 0.00 0.00 0.00 45 1019.2
20260509144350 10 250 20.9 33.8 0.00 0.00 0.00 44 1019.2
20260509144325 10 252 22.5 33.8 0.00 0.00 0.00 45 1019.1
20260509143320 10 261 20.9 33.8 0.00 0.00 0.00 45 1019.1
20260509142753 10 0 17.7 32.2 0.00 0.00 0.00 46 1019.1
20260509142252 10 267 19.3 32.2 0.00 0.00 0.00 48 1018.9
20260509141747 9 273 20.9 32.2 0.00 0.00 0.00 48 1018.9
20260509141233 8 267 16.1 33.8 0.00 0.00 0.00 50 1018.9
20260509140732 7 254 6.4 33.8 0.00 0.00 0.00 54 1018.9
20260509140229 6 264 0.0 6.4 0.00 0.00 0.00 61 1019.1
20260509135731 6 273 0.0 1.6 0.00 0.00 0.00 62 1019.1
20260509135228 5 273 1.6 6.4 0.00 0.00 0.00 66 1019.1
20260509134727 5 272 1.6 6.4 0.00 0.00 0.00 68 1019.1
20260509134213 5 311 3.2 4.8 0.00 0.00 0.00 68 1019.1
20260509133922 4 333 4.8 6.4 0.00 0.00 0.00 68 1019.1
20260509133400 3 330 3.2 6.4 0.00 0.00 0.00 74 1019.0
20260509132631 1 281 1.6 4.8 0.00 0.00 0.00 78 1019.1
20260509132106 1 281 1.6 4.8 0.00 0.00 0.00 79 1019.1
20260509131543 1 264 1.6 6.4 0.00 0.00 0.00 79 1019.0
20260509131024 1 264 3.2 6.4 0.00 0.00 0.00 77 1018.9
20260509130523 1 269 1.6 4.8 0.00 0.00 0.00 79 1018.9
20260509130233 0 262 0.0 1.6 0.00 0.00 0.00 81 1018.9
20260509125442 0 261 0.0 1.6 0.00 0.00 0.00 81 1018.9
20260509124947 0 261 1.6 6.4 0.00 0.00 0.00 81 1018.9
20260509124943 0 261 0.0 3.2 0.00 0.00 0.00 81 1018.9
20260509123918 0 261 3.2 6.4 0.00 0.00 0.00 83 1018.8
20260509123418 0 252 3.2 4.8 0.00 0.00 0.00 83 1018.6
20260509122854 0 294 4.8 11.3 0.00 0.00 0.00 83 1018.8
20260509122343 0 271 4.8 11.3 0.00 0.00 0.00 82 1018.6
20260509121841 0 261 3.2 8.0 0.00 0.00 0.00 80 1018.5
20260509121342 0 263 4.8 9.7 0.00 0.00 0.00 81 1018.5
20260509120825 0 259 3.2 9.7 0.00 0.00 0.00 81 1018.5
20260509120303 0 261 3.2 9.7 0.00 0.00 0.00 83 1018.4
20260509115802 0 263 4.8 8.0 0.00 0.00 0.00 82 1018.4
20260509115306 0 261 6.4 11.3 0.00 0.00 0.00 82 1018.3
20260509114738 0 253 6.4 11.3 0.00 0.00 0.00 82 1018.2
20260509114211 0 248 3.2 8.0 0.00 0.00 0.00 81 1018.2
20260509113645 1 251 4.8 12.9 0.00 0.00 0.00 81 1018.0
20260509113118 1 251 6.4 12.9 0.00 0.00 0.00 81 1018.0
20260509112553 1 259 6.4 11.3 0.00 0.00 0.00 81 1018.0
20260509112257 1 259 6.4 8.0 0.00 0.00 0.00 81 1018.0
20260509111524 1 258 4.8 8.0 0.00 0.00 0.00 81 1018.0
20260509110959 1 244 3.2 6.4 0.00 0.00 0.00 82 1017.9
20260509110432 1 242 3.2 6.4 0.00 0.00 0.00 82 1017.8
20260509105907 1 242 1.6 6.4 0.00 0.00 0.00 82 1017.8
20260509105402 1 241 0.0 6.4 0.00 0.00 0.00 82 1017.8
20260509104900 1 239 0.0 3.2 0.00 0.00 0.00 82 1017.7
20260509104356 1 239 1.6 6.4 0.00 0.00 0.00 82 1017.7
20260509104335 1 239 3.2 4.8 0.00 0.00 0.00 82 1017.5
20260509103304 1 240 3.2 6.4 0.00 0.00 0.00 82 1017.5
20260509102738 1 240 3.2 8.0 0.00 0.00 0.00 81 1017.5
20260509102212 1 241 3.2 6.4 0.00 0.00 0.00 81 1017.3
20260509101708 2 244 3.2 8.0 0.00 0.00 0.00 80 1017.3
20260509101206 2 244 3.2 8.0 0.00 0.00 0.00 78 1017.3
20260509100702 3 250 4.8 12.9 0.00 0.00 0.00 76 1017.2
20260509100136 3 248 6.4 12.9 0.00 0.00 0.00 74 1017.2
20260509095842 4 267 8.0 12.9 0.00 0.00 0.00 75 1017.1
20260509095107 3 267 9.7 12.9 0.00 0.00 0.00 79 1017.0
20260509094541 2 259 11.3 14.5 0.00 0.00 0.00 80 1016.9
20260509094036 2 250 11.3 14.5 0.00 0.00 0.00 80 1016.9
20260509093511 3 255 11.3 14.5 0.00 0.00 0.00 78 1016.7
20260509093008 3 259 9.7 14.5 0.00 0.00 0.00 77 1016.7
20260509092505 4 249 9.7 14.5 0.00 0.00 0.00 74 1016.6
20260509091938 4 264 11.3 16.1 0.00 0.00 0.00 74 1016.5
20260509091643 5 0 12.9 19.3 0.00 0.00 0.00 70 1016.4
20260509090908 5 272 14.5 19.3 0.00 0.00 0.00 70 1016.4
20260509090342 5 273 12.9 16.1 0.00 0.00 0.00 71 1016.3
20260509085839 5 281 9.7 16.1 0.00 0.00 0.00 71 1016.2
20260509085545 6 0 9.7 16.1 0.00 0.00 0.00 68 1015.9
20260509084746 6 0 9.7 14.5 0.00 0.00 0.00 70 1016.0
20260509084452 5 277 8.0 14.5 0.00 0.00 0.00 72 1016.0
20260509083654 5 273 4.8 14.5 0.00 0.00 0.00 74 1016.0
20260509083129 4 285 3.2 8.0 0.00 0.00 0.00 78 1016.0
20260509082626 4 0 3.2 8.0 0.00 0.00 0.00 76 1016.0
20260509082122 4 301 3.2 8.0 0.00 0.00 0.00 78 1015.9
20260509081828 4 265 1.6 6.4 0.00 0.00 0.00 76 1016.0
20260509081302 5 252 1.6 6.4 0.00 0.00 0.00 75 1015.8
20260509080504 5 267 3.2 6.4 0.00 0.00 0.00 74 1015.9
20260509080000 5 255 4.8 11.3 0.00 0.00 0.00 74 1015.9
20260509075434 5 244 4.8 11.3 0.00 0.00 0.00 74 1015.8
20260509074923 6 248 3.2 8.0 0.00 0.00 0.00 72 1015.8
20260509074421 6 255 3.2 6.4 0.00 0.00 0.00 73 1015.8
20260509073922 6 256 4.8 9.7 0.00 0.00 0.00 72 1015.8
20260509073410 6 257 4.8 9.7 0.00 0.00 0.00 70 1015.7
20260509073145 7 257 3.2 6.4 0.00 0.00 0.00 70 1015.6
20260509072407 6 264 0.0 6.4 0.00 0.00 0.00 70 1015.6
20260509071902 6 298 0.0 0.0 0.00 0.00 0.00 70 1015.6
20260509071348 6 298 0.0 1.6 0.00 0.00 0.00 70 1015.6
20260509070848 6 298 0.0 6.4 0.00 0.00 0.00 70 1015.6
20260509070322 6 298 1.6 6.4 0.00 0.00 0.00 70 1015.4
20260509065820 6 248 3.2 8.0 0.00 0.00 0.00 70 1015.4
20260509065255 7 248 3.2 8.0 0.00 0.00 0.00 69 1015.3
20260509064750 7 313 1.6 4.8 0.00 0.00 0.00 67 1015.2
20260509064224 8 316 1.6 4.8 0.00 0.00 0.00 65 1015.2
20260509063720 8 317 1.6 4.8 0.00 0.00 0.00 63 1015.1
20260509063157 8 318 3.2 4.8 0.00 0.00 0.00 63 1015.1
20260509062928 8 320 1.6 4.8 0.00 0.00 0.00 63 1015.1
20260509062130 9 324 1.6 3.2 0.00 0.00 0.00 62 1015.0
20260509061609 9 324 1.6 6.4 0.00 0.00 0.00 61 1015.1
20260509061338 9 324 1.6 6.4 0.00 0.00 0.00 58 1015.1
20260509060547 10 274 0.0 1.6 0.00 0.00 0.00 58 1015.1
20260509060047 10 274 0.0 3.2 0.00 0.00 0.00 58 1015.1
20260509055528 10 274 4.8 6.4 0.00 0.00 0.00 57 1014.9
20260509055522 10 274 1.6 4.8 0.00 0.00 0.00 57 1015.1
20260509054517 10 274 6.4 12.9 0.00 0.00 0.00 57 1014.9
20260509054014 11 269 8.0 12.9 0.00 0.00 0.00 56 1014.7
20260509053447 11 274 8.0 12.9 0.00 0.00 0.00 55 1014.6
20260509052944 11 273 8.0 12.9 0.00 0.00 0.00 54 1014.6
20260509052416 11 273 8.0 12.9 0.00 0.00 0.00 53 1014.6
20260509051914 12 304 6.4 12.9 0.00 0.00 0.00 53 1014.5
20260509051349 12 286 6.4 11.3 0.00 0.00 0.00 53 1014.5
20260509050848 12 280 6.4 9.7 0.00 0.00 0.00 53 1014.5
20260509050347 12 0 6.4 14.5 0.00 0.00 0.00 53 1014.5
20260509045847 12 292 8.0 14.5 0.00 0.00 0.00 52 1014.6
20260509045347 12 277 9.7 17.7 0.00 0.00 0.00 51 1014.6
20260509044822 12 291 9.7 17.7 0.00 0.00 0.00 51 1014.5
20260509044258 12 279 6.4 14.5 0.00 0.00 0.00 50 1014.6
20260509043755 12 288 6.4 14.5 0.00 0.00 0.00 50 1014.6
20260509043240 12 290 8.0 14.5 0.00 0.00 0.00 50 1014.6
20260509042740 12 0 8.0 12.9 0.00 0.00 0.00 49 1014.5
20260509042224 12 295 6.4 12.9 0.00 0.00 0.00 49 1014.5
20260509041721 12 0 4.8 11.3 0.00 0.00 0.00 49 1014.5
20260509041221 13 284 6.4 11.3 0.00 0.00 0.00 48 1014.5
20260509040722 13 0 8.0 12.9 0.00 0.00 0.00 47 1014.6
20260509040428 13 0 9.7 16.1 0.00 0.00 0.00 46 1014.5
20260509035929 13 268 9.7 17.7 0.00 0.00 0.00 46 1014.6
20260509035157 13 275 8.0 17.7 0.00 0.00 0.00 46 1014.5
20260509034906 13 273 6.4 12.9 0.00 0.00 0.00 45 1014.4
20260509034138 13 279 4.8 12.9 0.00 0.00 0.00 44 1014.3
20260509033618 14 0 6.4 16.1 0.00 0.00 0.00 43 1014.2
20260509033103 14 259 8.0 16.1 0.00 0.00 0.00 42 1014.0
20260509032603 14 294 6.4 14.5 0.00 0.00 0.00 41 1014.2
20260509032103 15 264 4.8 12.9 0.00 0.00 0.00 40 1014.0
20260509031600 15 266 6.4 17.7 0.00 0.00 0.00 37 1013.9
20260509031036 15 243 6.4 17.7 0.00 0.00 0.00 38 1014.0
20260509030515 15 288 4.8 16.1 0.00 0.00 0.00 39 1013.9
20260509030010 14 293 6.4 16.1 0.00 0.00 0.00 40 1013.8
20260509025449 14 246 8.0 14.5 0.00 0.00 0.00 41 1013.8
20260509024929 15 267 8.0 12.9 0.00 0.00 0.00 40 1013.7
20260509024430 15 273 9.7 16.1 0.00 0.00 0.00 38 1013.6
20260509023904 15 284 9.7 16.1 0.00 0.00 0.00 38 1013.4
20260509023403 15 284 8.0 25.7 0.00 0.00 0.00 38 1013.4
20260509022858 15 295 12.9 25.7 0.00 0.00 0.00 38 1013.3
20260509022332 16 265 14.5 27.4 0.00 0.00 0.00 36 1013.2
20260509022042 16 251 12.9 27.4 0.00 0.00 0.00 36 1013.2
20260509021238 16 219 11.3 19.3 0.00 0.00 0.00 35 1013.2
20260509020712 16 269 8.0 19.3 0.00 0.00 0.00 36 1013.1
20260509020147 16 235 9.7 20.9 0.00 0.00 0.00 37 1013.0
20260509015621 16 271 12.9 25.7 0.00 0.00 0.00 36 1013.0
20260509015052 16 219 9.7 25.7 0.00 0.00 0.00 34 1013.0
20260509014758 16 246 8.0 17.7 0.00 0.00 0.00 39 1013.1
20260509014022 16 251 9.7 17.7 0.00 0.00 0.00 35 1012.9